Regional Weather Roundup
Issued by NWS

Home | Current Version | Previous Version | Text Only | Print | Product List | Glossary Off
Versions: 1 2 3 4 5 6 7 8 9 10 11 12 13 14 15 16 17 18 19 20 21 22 23 24 25 26 27 28

000
ASUS45 KSLC 281910
RWRUT

UTAH REGIONAL WEATHER ROUNDUP
NATIONAL WEATHER SERVICE SALT LAKE CITY UT
100 PM MDT SAT MAY 28 2016

UTZ001>011-023>025-282000-

NORTHERN UTAH

CITY           SKY/WX    TMP DP  RH WIND       PRES   REMARKS
BRIGHAM CITY     N/A     65  33  29 W7        30.06S
HILL AFB       SUNNY     65  43  44 W9        30.05F
LOGAN          SUNNY     63  38  39 NW6       30.06S
OGDEN          SUNNY     66  40  38 VRB6      30.05S
PROVO AIRPORT  MOSUNNY   68  37  32 SW6       30.03F
SALT LAKE CITY MOSUNNY   69  42  37 MISG      30.03F
VERNAL         CLOUDY    68  36  30 VRB5      30.05F
WENDOVER       SUNNY     64  34  32 CALM      30.05F
HEBER CITY     MOSUNNY   70  32  24 SW9       30.04S
WEST JORDAN    SUNNY     66  45  45 E7        30.05S

$$

UTZ012>022-026-027-282000-

SOUTHERN/CENTRAL UTAH

CITY           SKY/WX    TMP DP  RH WIND       PRES   REMARKS
BLANDING       MOSUNNY   71  30  21 SE10G16   30.17F
BRYCE CANYON   PTSUNNY   60  28  29 S12       30.17F
CEDAR CITY     PTSUNNY   71  27  19 SW15G21   30.03F
DELTA          SUNNY     72  34  25 W5        30.02F
HANKSVILLE     MOSUNNY   75  30  19 CALM      30.03F
MILFORD        SUNNY     74  32  21 MISG      30.01F
MOAB/CYNLANDS  SUNNY     75  34  22 S7        30.01F
PRICE          MOSUNNY   68  32  26 VRB3G16   30.07F
ST GEORGE      PTCLDY    82  36  18 NW8       29.92F
KANAB          MOSUNNY   77  28  16 CALM      30.04F

$$

REGIONAL REPORTS     COLORADO/ARIZONA

CITY           SKY/WX    TMP DP  RH WIND       PRES   REMARKS
CRAIG, CO      CLOUDY    65  36  34 W10       30.09F
GRAND JUNCTION SUNNY     71  35  26 S8        30.05F
RIFLE          SUNNY     70  32  24 VRB5      30.06F
MONTROSE       SUNNY     68  23  18 E5        30.12S
CORTEZ         PTSUNNY   70  30  22 VRB5      30.09F
PAGE, AZ       SUNNY     79  31  17 N8        29.99F
GRAND CANYON   CLOUDY    70  25  18 E12G20    30.11F
KINGMAN        MOSUNNY   84  29  13 SW10G21   29.93F
FLAGSTAFF      PTSUNNY   68  27  21 E8        30.13F

$$

REGIONAL REPORTS    NEVADA/IDAHO/WYOMING

CITY           SKY/WX    TMP DP  RH WIND       PRES   REMARKS
LAS VEGAS, NV  PTSUNNY   88  31  13 NE8       29.82F
ELY            PTSUNNY   64  30  27 CALM      30.06F
ELKO           SUNNY     65  31  28 SE6       30.05F
POCATELLO, ID  SUNNY     62  28  27 SW17G24   30.09S
BURLEY         SUNNY     61  33  35 W8        30.08S
EVANSTON, WY   CLOUDY    59  34  39 W17G33    30.11S
ROCK SPRINGS   PTSUNNY   59  29  31 W15G24    30.09F
KEMMERER         N/A     55  34  44 W17G24    30.12F

$$




USA.gov is the U.S. government's official web portal to all federal, state and local government web resources and services.